Home   Weather   Xi'an   Past weeks

Flag for China Past Weather in Xi'an, Shaanxi, China — Yesterday and Last 2 Weeks

Now
36 °F

Light rain. Overcast.


Feels Like: 25 °F
Forecast: 28 / 41 °F
Wind: 20 mph from Northeast

Location: Xian/Xianyang

Current Time: Feb 21, 2017 at 2:37:34 am

Latest Report: Feb 21, 2017 at 2:00 am


Visibility: N/A

Pressure: 30.12 "Hg

Humidity: 41%

Dew Point: 14 °F

Location of Xi'anLocation

Past Weather in Xi'an — Graph

°F

Xi'an Temperature Yesterday

Maximum temperature yesterday: 52 °F (at 1:00 am)
Minimum temperature yesterday: 36 °F (at 11:00 pm)
Average temperature yesterday: 46 °F

High & Low Weather Summary for the Past Weeks

 TemperatureHumidityPressure
High70 °F (Feb 16, 3:00 pm)100% (Feb 7, 1:00 pm)30.54 "Hg (Feb 7, 1:00 pm)
Low14 °F (Feb 9, 6:00 am)18% (Feb 10, 4:00 pm)29.56 "Hg (Feb 19, 3:00 pm)
Average41 °F57%30.23 "Hg
* Reported Feb 6 1:00 am — Feb 21 1:00 am, Xi'an, Weather by CustomWeather, © 2017

Note: Actual official high and low records may vary slightly from our data, if they occured in-between our weather recording intervals... More about our weather records

Advertising

Xi'an Weather History for the Previous 24 Hours

Scroll right to see more
 ConditionsComfort  
Time TempWeatherWind HumidityBarometerVisibility
1:00 am
Tue, Feb 21
36 °FOvercast.20 mph44%30.15 "HgN/A
12:00 am36 °FOvercast.22 mph52%30.12 "HgN/A
11:00 pm
Mon, Feb 20
36 °FOvercast.22 mph65%30.12 "HgN/A
10:00 pm37 °FOvercast.24 mph56%30.12 "HgN/A
9:00 pm41 °FOvercast.24 mph36%30.09 "Hg4 mi
8:00 pm43 °FOvercast.24 mph31%30.07 "Hg4 mi
7:00 pm43 °FSnow flurries. Overcast.24 mph36%30.04 "Hg4 mi
6:00 pm45 °FOvercast.26 mph27%30.01 "Hg4 mi
5:00 pm46 °FOvercast.26 mph27%30.01 "Hg4 mi
4:00 pm46 °FOvercast.24 mph27%29.98 "Hg3 mi
3:00 pm46 °FOvercast.24 mph29%30.01 "Hg3 mi
2:00 pm48 °FOvercast.22 mph29%30.04 "Hg3 mi
1:00 pm48 °FOvercast.24 mph32%30.04 "Hg2 mi
12:00 pm48 °FOvercast.24 mph34%30.04 "Hg2 mi
11:00 am48 °FHaze.24 mph40%30.04 "Hg2 mi
10:00 am48 °FHaze.22 mph43%30.01 "Hg2 mi
9:00 am48 °FHaze.17 mph50%30.01 "Hg2 mi
8:00 am46 °FHaze.20 mph50%29.95 "Hg2 mi
7:00 am46 °FHaze.15 mph57%29.95 "Hg3 mi
6:00 am46 °FHaze.8 mph66%29.92 "Hg3 mi
5:00 am46 °FHaze.8 mph66%29.92 "Hg3 mi
4:00 am46 °FHaze.6 mph53%29.89 "Hg3 mi
3:00 am45 °FHaze.3 mph57%29.89 "Hg2 mi
2:00 am50 °FHaze.1 mph54%29.89 "Hg2 mi
Weather by CustomWeather, © 2017

See weather overviewHow to use our weather pages